カタログに戻る

FENGYUN 1C DEB

運用中SSO
NORAD 30213·DEBRIS·🇨🇳 China

打ち上げ May 10, 1999 から Taiyuan Satellite Launch Center

Loading…

次のパス (今後24時間)

TLE

最新Source: Space-Track

元期: Sep 14, 2026, 03:58 UTC

1 30213U 99025VW  26257.16575406  .00001695  00000-0  91395-3 0  9991
2 30213  99.1121 343.2632 0070310 190.0050 198.5685 14.12888037  4034

AllMySatでFENGYUN 1C DEBをリアルタイム追跡

Download on the App Store